Wind_Speed
23 23 22 22 23 21 22 24 23 22 20 19 18 17 15 13 11 10 9 8 6 5 5 5 6 7 7 8 8 8 8 7 7 6 6 6 5 4 4 4 3 3 3 4 4 4 4 4 4
22 22 22 22 23 23 25 25 24 22 20 19 19 17 16 14 12 10 9 8 6 5 5 6 6 6 7 7 7 7 7 7 7 6 6 5 5 5 4 3 3 3 3 3 3 3 3 3 3
22 21 22 22 23 25 26 25 24 22 20 20 19 18 16 14 12 11 10 8 6 5 5 5 5 6 6 6 6 6 6 6 6 6 5 5 4 4 4 4 4 3 3 3 3 2 3 3 3
21 21 21 21 23 24 25 25 24 23 21 20 19 18 16 14 12 11 10 8 6 5 5 5 5 5 5 5 6 6 5 5 5 5 5 5 5 4 5 4 4 4 3 3 2 2 3 3 3
19 20 21 22 23 24 25 25 25 24 22 20 19 18 16 14 12 11 10 8 7 6 5 5 5 4 4 4 5 5 4 4 4 4 4 4 4 4 4 4 4 3 3 2 2 2 2 2 2
18 19 21 22 24 25 25 25 25 24 23 21 20 19 17 15 13 12 10 8 7 6 6 6 5 4 4 3 3 3 3 4 4 3 4 3 3 3 3 4 4 3 2 2 2 2 2 2 3
17 18 21 22 23 24 25 25 24 24 23 22 20 19 17 16 14 13 11 9 8 7 6 6 5 4 4 3 3 2 3 3 3 3 3 3 3 2 2 3 3 2 2 2 2 2 2 2 2
16 18 19 21 22 23 24 24 23 23 23 22 21 19 18 16 15 14 12 11 9 8 7 6 5 4 3 3 2 2 2 2 2 2 2 2 2 2 2 2 2 2 2 2 2 2 2 2 2
13 16 18 20 21 22 23 23 23 22 22 21 21 20 18 17 16 15 13 12 11 9 8 7 5 4 2 2 2 2 1 1 1 2 2 2 1 2 2 2 1 2 2 2 2 2 2 2 2
11 14 16 18 20 21 22 22 22 23 22 21 20 20 19 17 16 15 14 13 12 11 10 9 7 5 3 2 1 1 1 1 1 2 2 2 1 1 1 2 2 1 2 2 2 2 2 2 2
8 11 14 16 18 20 20 21 22 22 22 22 21 20 18 17 17 16 15 15 13 12 11 10 9 7 5 3 2 1 1 1 1 2 3 2 2 1 1 2 2 2 2 3 3 3 2 2 2
6 9 12 14 16 17 19 19 21 21 21 20 20 19 18 18 17 16 16 15 14 12 11 11 10 8 6 4 3 3 2 2 2 2 3 3 2 1 2 2 2 3 3 2 2 2 2 1 1
4 7 10 12 14 15 17 18 19 20 20 19 19 19 19 18 18 18 18 17 15 13 11 11 10 9 7 5 4 3 2 2 2 3 3 3 2 2 2 2 2 3 3 2 2 1 1 1 1
3 6 9 10 12 13 15 17 17 18 18 18 18 18 18 18 18 18 18 17 16 14 12 11 11 10 8 5 4 3 2 2 2 2 2 2 1 2 2 3 3 3 3 2 2 1 1 1 1
2 5 7 8 10 11 12 14 16 16 17 18 18 18 19 19 18 18 17 15 15 14 12 11 10 9 7 6 4 2 2 2 2 2 2 2 1 1 2 4 4 3 3 3 3 2 2 2 2
2 3 4 6 8 8 10 12 14 15 16 17 18 19 19 19 18 18 16 15 14 13 12 11 10 8 7 7 6 4 4 2 1 1 2 2 1 2 3 4 4 3 4 4 4 3 2 2 3
4 2 1 3 5 6 8 10 12 13 14 16 17 18 19 18 18 17 16 15 13 12 11 10 9 7 7 6 5 4 4 2 0 1 1 1 1 2 3 3 4 4 4 4 5 4 4 3 4
7 5 3 1 2 4 6 8 10 11 12 14 15 17 18 18 18 17 16 15 14 12 10 9 8 7 6 6 5 4 3 2 0 1 1 1 1 2 3 4 4 4 4 4 5 6 5 5 6
9 7 6 4 4 4 5 6 8 9 11 12 14 16 17 17 17 17 17 16 14 12 11 9 8 6 5 5 5 4 4 2 1 1 2 2 3 3 4 4 5 5 5 5 6 7 7 7 7
11 9 7 6 6 5 5 6 7 8 10 11 13 15 16 17 17 16 15 15 13 12 11 10 9 7 5 5 4 4 4 3 2 2 3 3 3 4 5 5 6 6 6 6 7 8 8 8 8
12 11 10 9 8 7 6 6 7 9 10 10 12 13 15 16 16 16 14 14 13 11 11 10 9 7 6 5 4 4 3 3 3 3 3 4 5 5 5 6 7 7 7 8 8 8 9 9 10
15 14 13 12 10 9 8 8 8 9 9 10 11 12 14 15 16 15 14 13 13 11 10 9 8 7 5 5 5 4 4 3 3 4 4 4 5 6 6 7 7 8 9 9 10 10 10 10 10
17 16 15 14 13 12 11 10 8 8 9 9 10 11 13 15 15 14 13 13 13 11 10 9 8 6 5 5 5 5 4 4 4 4 4 5 6 8 8 8 9 10 10 11 11 11 12 12 13
18 18 17 16 15 14 12 11 9 9 9 9 10 11 12 13 14 14 13 12 12 11 10 9 8 7 6 6 5 5 5 5 5 5 5 6 7 8 8 9 10 10 11 12 13 13 14 14 14
20 19 19 18 16 15 13 12 11 10 10 9 11 11 11 12 13 14 13 12 11 11 10 9 9 8 7 6 5 6 6 5 5 5 6 6 6 7 8 9 10 11 11 12 13 14 14 15 15
21 20 20 20 18 16 15 13 11 10 9 10 10 11 11 12 13 13 13 12 12 11 10 9 9 8 7 6 6 6 6 6 6 5 5 6 7 8 8 9 10 11 11 13 13 14 14 15 15
23 22 20 21 20 18 17 15 13 11 10 10 11 10 10 12 13 13 13 12 11 11 11 10 9 8 7 7 7 6 7 6 6 5 5 6 7 8 9 10 10 10 11 12 13 13 13 14 15
25 23 22 21 21 20 18 15 14 12 11 11 10 10 10 11 12 12 12 12 12 12 11 10 9 8 8 8 7 7 7 7 6 6 7 7 8 8 8 9 9 10 10 11 12 12 12 13 14
26 25 24 23 23 21 19 17 14 13 12 11 10 10 10 11 11 12 12 12 12 12 12 10 9 9 9 8 8 8 7 7 7 8 8 8 8 9 9 9 10 10 11 11 11 12 13 13 14
28 26 25 24 23 22 21 18 15 15 13 12 11 11 11 11 11 11 12 12 12 12 12 11 10 9 9 9 9 8 8 8 8 9 9 9 10 10 10 10 10 11 11 11 11 12 12 13 14
Wind_Direction
72 69 68 66 63 60 60 60 56 53 53 54 54 54 55 54 53 52 53 52 52 56 71 82 88 87 88 85 82 80 78 77 76 75 75 75 75 75 76 79 76 81 79 78 86 99 104 102 94
72 69 66 64 63 61 59 57 52 49 48 50 51 50 49 51 52 52 52 50 51 59 71 79 81 83 85 85 84 83 81 77 70 71 73 75 74 74 77 76 79 84 78 79 88 103 113 107 99
69 68 64 63 63 62 59 57 52 47 45 47 48 47 45 45 50 52 52 51 52 58 68 75 79 83 82 83 81 80 79 74 70 70 73 76 69 65 71 71 74 72 78 79 86 102 121 117 112
68 67 64 63 61 60 58 55 52 47 44 44 45 46 44 41 44 48 50 51 52 55 61 68 76 79 79 79 76 75 75 73 71 70 70 71 69 63 66 69 65 61 70 80 94 111 128 130 118
68 66 63 61 58 58 56 53 50 45 41 40 43 44 42 40 41 43 44 45 49 54 58 63 68 71 77 79 75 72 72 73 75 73 71 67 69 64 60 61 59 63 67 79 95 105 116 125 130
67 66 62 58 57 56 54 50 47 43 40 39 42 44 41 38 39 40 39 40 44 49 54 59 61 69 73 74 70 65 69 76 80 80 71 69 72 71 65 60 60 65 71 84 110 109 110 122 137
69 68 63 59 55 54 52 48 45 42 39 39 41 42 39 36 34 36 35 34 36 41 45 49 59 65 70 65 62 65 75 83 90 86 76 68 65 70 74 75 69 72 79 97 117 124 117 119 131
72 71 65 59 54 51 50 47 44 41 38 38 39 40 37 33 31 32 32 32 34 38 40 43 53 60 53 50 58 65 77 85 104 108 100 84 78 67 75 90 81 73 86 113 130 134 131 124 127
73 73 66 61 55 50 48 48 45 42 39 37 37 36 35 32 31 31 32 33 36 39 41 40 43 53 52 46 51 65 91 94 125 135 126 101 82 67 86 106 98 87 92 118 146 157 141 128 127
72 73 67 62 56 51 47 46 43 41 40 37 35 33 31 31 29 30 32 33 34 37 41 41 42 44 42 43 41 71 108 117 152 155 138 118 96 87 118 133 134 131 127 123 138 149 137 127 128
68 74 71 65 58 52 46 43 40 38 38 34 32 32 29 28 27 30 31 32 33 35 38 41 40 37 36 38 39 65 96 127 165 157 158 152 130 107 131 149 150 154 146 132 131 137 125 113 118
63 77 71 65 60 52 45 41 38 35 34 31 30 30 30 27 26 29 29 30 32 34 36 37 34 32 30 38 50 74 87 94 118 144 155 164 154 134 147 157 154 154 152 142 134 139 135 114 117
68 82 70 63 58 52 45 39 37 32 30 27 29 28 27 24 26 28 27 26 27 29 32 31 29 31 35 48 62 68 87 103 105 124 132 139 153 173 165 163 174 172 170 162 148 134 148 147 139
84 87 72 63 59 54 46 40 35 30 28 26 26 26 25 20 21 23 21 21 22 24 27 28 28 28 31 44 55 60 89 122 122 122 128 126 143 173 180 173 174 185 188 180 179 179 173 167 196
117 89 74 66 57 51 44 37 32 28 25 25 24 23 22 20 19 16 16 18 20 22 23 23 22 24 28 37 46 50 60 109 121 130 130 131 140 176 189 184 184 191 198 199 198 204 221 232 254
180 121 86 68 62 49 42 33 30 27 23 24 23 22 20 17 16 12 13 15 16 17 19 19 19 27 32 38 36 39 49 61 102 129 146 156 168 184 189 188 195 203 207 213 211 218 238 251 262
216 191 144 60 52 45 39 32 25 20 17 17 19 19 19 17 13 10 9 9 8 11 13 15 16 21 27 36 33 40 51 43 228 218 211 197 202 192 194 199 203 212 217 221 226 233 246 260 270
223 233 238 265 342 7 16 20 17 10 8 8 11 14 14 14 11 8 7 4 3 6 8 13 11 16 19 24 26 25 25 20 97 222 255 237 226 216 216 209 214 219 225 231 239 242 251 261 271
232 235 238 252 284 323 348 359 7 3 1 3 5 7 9 7 7 7 6 1 360 0 1 2 359 1 12 23 24 19 10 4 12 300 277 253 243 237 239 232 234 237 239 241 247 250 254 261 270
231 233 240 254 279 304 326 337 346 353 355 0 2 3 3 4 6 3 3 2 358 360 1 359 354 353 3 11 16 1 3 355 345 320 293 277 261 242 245 249 248 250 251 253 253 253 256 263 268
234 236 244 257 270 292 310 322 331 338 344 352 357 359 0 360 0 0 358 357 358 359 359 356 359 7 4 357 355 345 342 335 329 323 303 283 271 263 259 260 256 257 259 257 262 263 262 263 266
238 243 248 255 264 278 292 304 319 329 342 349 353 354 357 357 358 357 356 355 357 357 356 352 355 1 2 1 356 349 343 338 330 318 312 297 278 272 270 264 259 261 265 265 265 265 265 265 266
240 246 249 255 265 273 283 295 310 315 331 340 345 350 354 356 357 357 357 357 357 355 356 355 353 352 358 360 358 354 352 345 333 317 310 299 283 275 272 269 266 266 266 269 268 263 265 266 268
242 245 249 253 261 267 276 287 296 302 316 326 336 345 350 354 357 359 357 356 360 358 355 356 356 351 347 344 343 337 341 344 332 318 305 297 288 280 279 273 268 268 269 269 268 267 270 269 268
242 245 248 251 256 264 270 278 286 294 301 310 325 338 343 349 353 355 355 355 358 358 355 353 354 349 343 337 332 329 329 332 326 311 308 308 297 286 287 283 275 273 272 272 271 270 271 272 272
242 246 249 251 255 259 263 268 278 290 296 302 315 328 338 345 349 349 351 352 353 353 352 351 350 347 345 341 336 328 320 320 323 313 311 313 303 292 289 287 279 279 278 279 281 278 275 275 275
241 244 248 251 253 256 261 267 271 277 286 295 308 321 330 338 342 345 347 348 348 349 350 349 350 347 343 339 336 330 322 318 320 318 316 319 312 300 292 288 286 285 285 281 279 279 281 281 280
239 242 245 250 252 256 260 265 272 276 281 291 304 313 319 327 335 342 344 346 346 350 349 348 348 347 343 338 332 326 323 323 326 325 320 317 316 312 300 294 292 288 288 289 285 284 287 288 285
240 241 245 250 253 256 260 262 268 272 275 286 294 303 310 319 330 340 345 348 347 346 344 346 347 345 342 339 334 328 326 323 322 322 320 317 316 311 307 300 297 293 293 291 289 289 290 290 290
238 240 244 249 253 257 261 261 262 266 269 275 283 292 300 311 322 333 343 348 348 346 344 345 343 341 338 336 335 330 324 321 320 320 317 316 314 312 309 307 302 299 297 294 292 291 291 290 291
Height
5902 5901 5900 5900 5898 5896 5893 5892 5891 5890 5890 5889 5888 5887 5886 5886 5887 5889 5886 5884 5884 5884 5884 5884 5883 5883 5884 5884 5885 5885 5886 5886 5887 5888 5889 5890 5891 5891 5892 5893 5893 5894 5894 5894 5895 5895 5895 5896 5896
5905 5904 5904 5902 5900 5898 5896 5894 5893 5893 5892 5891 5889 5889 5888 5887 5887 5887 5886 5885 5885 5885 5885 5885 5884 5884 5884 5885 5885 5886 5886 5887 5888 5889 5890 5890 5891 5892 5893 5893 5893 5894 5894 5895 5895 5895 5896 5896 5897
5908 5907 5907 5905 5902 5900 5899 5897 5896 5895 5894 5893 5891 5890 5890 5889 5889 5888 5887 5887 5887 5886 5886 5885 5885 5885 5885 5885 5886 5886 5887 5887 5888 5889 5890 5891 5891 5892 5892 5893 5893 5894 5894 5895 5895 5896 5896 5897 5897
5911 5911 5910 5908 5905 5903 5901 5900 5899 5898 5897 5895 5894 5893 5892 5891 5890 5890 5889 5888 5888 5887 5886 5886 5886 5886 5886 5886 5886 5887 5887 5888 5889 5889 5890 5891 5891 5892 5893 5893 5894 5894 5895 5895 5895 5896 5897 5897 5897
5913 5913 5911 5909 5907 5906 5904 5902 5901 5900 5899 5898 5896 5895 5894 5893 5892 5891 5890 5889 5889 5888 5887 5886 5886 5886 5886 5887 5887 5887 5888 5888 5889 5890 5890 5891 5892 5892 5893 5893 5894 5894 5895 5895 5896 5896 5897 5898 5898
5916 5915 5914 5912 5910 5908 5907 5905 5903 5903 5902 5900 5898 5897 5896 5895 5894 5892 5891 5890 5889 5888 5887 5887 5886 5886 5886 5887 5887 5888 5888 5888 5889 5890 5890 5891 5892 5892 5893 5894 5894 5894 5895 5895 5896 5897 5897 5898 5899
5918 5917 5916 5914 5913 5911 5910 5908 5906 5906 5904 5902 5901 5899 5898 5897 5896 5894 5893 5891 5890 5889 5888 5887 5887 5886 5887 5887 5887 5888 5888 5889 5889 5890 5890 5891 5892 5892 5893 5894 5894 5895 5895 5896 5896 5897 5898 5898 5899
5919 5920 5918 5917 5915 5914 5913 5911 5910 5908 5907 5905 5903 5901 5900 5899 5897 5895 5894 5892 5891 5890 5888 5888 5887 5887 5887 5887 5887 5887 5888 5888 5889 5890 5890 5891 5892 5892 5893 5894 5894 5895 5895 5896 5897 5897 5898 5899 5899
5921 5922 5920 5919 5918 5917 5915 5914 5913 5911 5909 5908 5906 5904 5902 5901 5899 5897 5895 5893 5891 5890 5889 5888 5888 5887 5887 5887 5887 5887 5887 5888 5889 5889 5890 5891 5892 5893 5893 5894 5894 5895 5896 5896 5897 5898 5898 5899 5899
5923 5923 5922 5921 5920 5919 5918 5917 5916 5914 5912 5910 5908 5906 5904 5902 5900 5898 5896 5894 5893 5891 5889 5888 5888 5888 5887 5887 5887 5887 5887 5888 5889 5889 5890 5891 5892 5893 5893 5894 5895 5895 5896 5896 5897 5898 5899 5899 5900
5925 5924 5924 5923 5922 5921 5920 5919 5918 5917 5915 5913 5910 5908 5906 5904 5902 5900 5898 5896 5894 5892 5891 5890 5889 5888 5888 5887 5887 5887 5887 5888 5888 5889 5890 5891 5892 5893 5893 5894 5895 5895 5896 5897 5897 5898 5899 5900 5900
5926 5926 5925 5924 5924 5923 5922 5921 5920 5919 5918 5916 5913 5911 5908 5906 5904 5902 5899 5897 5895 5893 5892 5891 5890 5889 5888 5888 5887 5887 5888 5888 5888 5889 5890 5891 5892 5893 5893 5894 5895 5896 5896 5897 5898 5899 5899 5900 5900
5927 5927 5926 5926 5925 5925 5924 5923 5922 5921 5920 5918 5915 5913 5911 5908 5905 5903 5901 5898 5896 5895 5893 5892 5890 5889 5889 5888 5888 5888 5888 5888 5889 5889 5890 5891 5892 5892 5893 5894 5895 5896 5897 5897 5898 5899 5899 5900 5900
5928 5928 5927 5927 5927 5926 5926 5925 5924 5923 5921 5919 5917 5915 5912 5910 5907 5904 5902 5900 5897 5896 5894 5893 5891 5890 5889 5889 5889 5888 5888 5888 5889 5890 5890 5891 5891 5892 5893 5894 5895 5896 5897 5897 5898 5899 5899 5900 5900
5928 5929 5929 5928 5928 5928 5928 5927 5926 5925 5923 5921 5919 5916 5914 5911 5908 5906 5903 5901 5899 5897 5895 5893 5892 5891 5890 5889 5889 5889 5889 5889 5889 5890 5890 5891 5891 5892 5892 5893 5894 5896 5897 5897 5898 5899 5899 5899 5900
5928 5929 5929 5929 5928 5928 5930 5928 5927 5926 5924 5922 5920 5917 5915 5912 5909 5907 5904 5902 5900 5897 5896 5894 5893 5891 5890 5890 5890 5889 5889 5889 5889 5890 5890 5891 5891 5891 5892 5893 5894 5895 5896 5897 5897 5898 5898 5899 5900
5928 5929 5929 5929 5929 5928 5929 5928 5928 5927 5925 5923 5921 5918 5916 5913 5910 5908 5905 5903 5900 5898 5897 5894 5893 5892 5891 5891 5890 5889 5889 5889 5890 5890 5890 5891 5891 5891 5892 5893 5894 5895 5895 5896 5897 5897 5898 5898 5899
5928 5928 5929 5929 5929 5929 5928 5928 5928 5927 5925 5923 5921 5918 5916 5913 5911 5908 5906 5903 5901 5899 5897 5895 5893 5892 5891 5891 5890 5890 5890 5890 5890 5890 5890 5891 5891 5892 5892 5893 5893 5894 5895 5895 5896 5897 5897 5897 5898
5927 5928 5928 5929 5928 5928 5928 5928 5928 5927 5926 5924 5922 5919 5916 5913 5911 5908 5906 5903 5901 5899 5897 5895 5893 5892 5891 5891 5890 5890 5890 5890 5890 5890 5890 5890 5891 5891 5892 5892 5893 5893 5894 5895 5895 5895 5896 5896 5896
5926 5927 5928 5928 5928 5928 5928 5928 5927 5926 5925 5924 5922 5919 5916 5913 5911 5908 5906 5904 5901 5899 5897 5895 5893 5890 5890 5891 5891 5891 5890 5890 5890 5890 5890 5890 5890 5890 5891 5891 5892 5892 5893 5893 5894 5894 5894 5895 5895
5925 5926 5926 5927 5927 5927 5927 5927 5927 5926 5925 5923 5921 5919 5916 5913 5911 5909 5906 5904 5902 5899 5897 5895 5893 5891 5891 5891 5891 5890 5890 5890 5890 5890 5889 5889 5889 5889 5890 5890 5890 5891 5891 5892 5892 5892 5892 5892 5893
5923 5924 5924 5925 5926 5926 5927 5926 5926 5925 5924 5923 5921 5919 5916 5913 5911 5909 5906 5904 5902 5899 5897 5895 5893 5892 5891 5891 5891 5890 5890 5889 5889 5889 5889 5888 5888 5888 5888 5888 5888 5889 5889 5890 5890 5890 5890 5890 5890
5921 5921 5922 5923 5924 5924 5924 5925 5926 5924 5923 5922 5920 5918 5916 5913 5911 5908 5906 5903 5901 5899 5897 5895 5894 5892 5891 5891 5890 5890 5889 5889 5889 5888 5888 5888 5887 5887 5887 5887 5887 5887 5887 5887 5887 5887 5887 5887 5887
5918 5919 5920 5921 5922 5923 5923 5923 5924 5923 5922 5921 5920 5918 5915 5913 5911 5908 5906 5904 5901 5899 5898 5896 5894 5893 5891 5890 5890 5890 5889 5888 5888 5887 5887 5886 5886 5885 5885 5885 5884 5884 5884 5884 5884 5884 5884 5884 5884
5915 5917 5918 5918 5919 5920 5921 5921 5922 5921 5920 5919 5918 5917 5915 5912 5910 5908 5906 5903 5901 5899 5897 5896 5894 5893 5891 5890 5889 5889 5888 5887 5887 5886 5885 5885 5884 5883 5883 5882 5882 5882 5881 5881 5881 5881 5881 5880 5881
5911 5913 5915 5916 5917 5918 5918 5919 5920 5920 5919 5918 5917 5916 5914 5912 5910 5908 5905 5903 5901 5899 5897 5895 5894 5892 5891 5889 5888 5888 5887 5886 5885 5885 5884 5883 5882 5881 5881 5880 5880 5879 5878 5878 5878 5878 5877 5877 5877
5907 5909 5911 5912 5913 5914 5915 5917 5918 5918 5917 5916 5916 5914 5913 5911 5909 5907 5905 5903 5900 5898 5897 5895 5893 5892 5890 5889 5888 5887 5886 5884 5884 5883 5882 5881 5880 5879 5879 5878 5877 5877 5876 5875 5875 5874 5874 5874 5873
5903 5905 5907 5908 5909 5911 5912 5913 5915 5915 5915 5915 5914 5913 5912 5910 5908 5906 5904 5902 5900 5898 5896 5894 5893 5891 5890 5889 5887 5886 5885 5884 5882 5882 5881 5880 5879 5877 5876 5875 5874 5874 5873 5873 5872 5872 5871 5870 5869
5899 5901 5902 5904 5906 5907 5908 5912 5912 5912 5913 5913 5912 5911 5910 5909 5907 5905 5903 5901 5900 5898 5896 5893 5892 5891 5890 5888 5887 5885 5884 5883 5882 5881 5880 5878 5877 5876 5875 5873 5872 5871 5870 5870 5869 5869 5868 5867 5866
5893 5896 5898 5901 5902 5903 5904 5910 5909 5909 5909 5910 5910 5909 5908 5907 5906 5904 5902 5901 5899 5897 5895 5893 5892 5890 5889 5887 5886 5885 5883 5882 5881 5880 5878 5877 5876 5874 5873 5871 5870 5869 5868 5867 5866 5865 5864 5863 5862